Powrót do katalogu

BEIDOU 3 M28

AktywnyNawigacjaMEO
NORAD 58654·PAYLOAD·🇨🇳 China

Wystrzelony Dec 26, 2023 z Xichang Satellite Launch Center

Loading…

Następne Przeloty (najbliższe 24 godziny)

TLE

ŚwieżeSource: Space-Track

Epoka: Sep 14, 2026, 10:25 UTC

1 58654U 23207A   26257.43424630 -.00000051  00000-0  00000-0 0  9997
2 58654  55.8368  59.2971 0000655  45.3182 314.6983  1.86229739 18502

Śledź BEIDOU 3 M28 w czasie rzeczywistym z AllMySat

Download on the App Store